Weather History for Brunswick, GA

Change the Weather History Date:

Thursday, August 15, 2013

  Actual Average Record
Temperature  
Mean Temperature 80 °F -  
Max Temperature 91 °F 89 °F 100 °F (1956)
Min Temperature 69 °F 72 °F 33 °F (1996)
Cooling Degree Days 15    
Growing Degree Days 30 (Base 50)    
Moisture  
Dew Point 72 °F    
Average Humidity 90    
Maximum Humidity 100    
Minimum Humidity 52    
Precipitation  
Precipitation 0.00 in - - ()
Sea Level Pressure  
Sea Level Pressure 30.00 in    
Wind  
Wind Speed 2 mph (East)    
Max Wind Speed 14 mph    
Max Gust Speed 20 mph    
Visibility 9 miles    
Events Thunderstorm    
Averages and records for this station are not official NWS values.
T = Trace of Precipitation, MM = Missing Value Source: NWS Daily Summary

Daily Weather History Graph

Daily Weather History Graph

Search for Another Location

Airport:

Trip Planner

Search our weather history database for the weather conditions in past years. The results will help you decide how hot, cold, wet, or windy it might be!

Date:

Astronomy

Aug. 15, 2013 Rise Set
Actual Time 6:51 AM EDT 8:08 PM EDT
Civil Twilight 6:26 AM EDT 8:33 PM EDT
Nautical Twilight 5:55 AM EDT 9:04 PM EDT
Astronomical Twilight 5:24 AM EDT 9:35 PM EDT
Moon 3:17 PM EDT (8/15) 1:05 AM EDT (8/15)
Length of Visible Light 14h 07m
Length of Day
13h 16m
Waxing Gibbous, 64% of the Moon is Illuminated
Aug 15
Waxing Gibbous
Aug 20
Full
Aug 28
Last Quarter
Sep 5
New
Sep 12
First Quarter

Hourly Weather History & Observations

Time (EDT) Temp. Heat Index Dew Point Humidity Pressure Visibility Wind Dir Wind Speed Gust Speed Precip Events Conditions
12:15 AM 69.8 °F - 69.8 °F 100% 29.98 in 10.0 mi Calm Calm - N/A   Clear
12:35 AM 69.8 °F - 69.8 °F 100% 29.98 in 10.0 mi SE 3.5 mph - N/A   Clear
12:55 AM 71.6 °F - 69.8 °F 94% 29.98 in 10.0 mi Calm Calm - N/A   Clear
1:15 AM 71.6 °F - 69.8 °F 94% 29.98 in 10.0 mi Calm Calm - N/A   Clear
1:35 AM 71.6 °F - 71.6 °F 100% 29.99 in 10.0 mi Calm Calm - N/A   Clear
1:55 AM 71.6 °F - 71.6 °F 100% 29.98 in 10.0 mi Calm Calm - N/A   Clear
2:15 AM 71.6 °F - 69.8 °F 94% 29.98 in 10.0 mi Calm Calm - N/A   Scattered Clouds
2:35 AM 71.6 °F - 71.6 °F 100% 29.98 in 10.0 mi Calm Calm - N/A   Mostly Cloudy
2:55 AM 71.6 °F - 69.8 °F 94% 29.98 in 7.0 mi Calm Calm - N/A   Scattered Clouds
3:15 AM 71.6 °F - 71.6 °F 100% 29.97 in 10.0 mi Calm Calm - N/A   Clear
3:35 AM 71.6 °F - 69.8 °F 94% 29.97 in 10.0 mi Calm Calm - N/A   Scattered Clouds
3:55 AM 71.6 °F - 69.8 °F 94% 29.97 in 1.5 mi Calm Calm - N/A   Scattered Clouds
4:15 AM 71.6 °F - 69.8 °F 94% 29.97 in 1.2 mi Calm Calm - N/A   Mostly Cloudy
4:35 AM 71.6 °F - 69.8 °F 94% 29.97 in 10.0 mi Calm Calm - N/A   Mostly Cloudy
4:55 AM 71.6 °F - 69.8 °F 94% 29.97 in 7.0 mi Calm Calm - N/A   Mostly Cloudy
5:15 AM 71.6 °F - 69.8 °F 94% 29.97 in 10.0 mi Calm Calm - N/A   Scattered Clouds
5:35 AM 71.6 °F - 69.8 °F 94% 29.97 in 7.0 mi Calm Calm - N/A   Clear
5:55 AM 71.6 °F - 69.8 °F 94% 29.97 in 10.0 mi Calm Calm - N/A   Clear
6:15 AM 71.6 °F - 71.6 °F 100% 29.98 in 7.0 mi Calm Calm - N/A   Clear
6:35 AM 71.6 °F - 71.6 °F 100% 29.98 in 10.0 mi Calm Calm - N/A   Clear
6:55 AM 71.6 °F - 71.6 °F 100% 29.99 in 10.0 mi Calm Calm - N/A   Clear
7:15 AM 71.6 °F - 71.6 °F 100% 30.00 in 7.0 mi Calm Calm - N/A   Clear
7:35 AM 71.6 °F - 71.6 °F 100% 30.00 in 10.0 mi Calm Calm - N/A   Clear
7:55 AM 73.4 °F - 71.6 °F 94% 30.01 in 10.0 mi Calm Calm - N/A   Clear
8:15 AM 73.4 °F - 73.4 °F 100% 30.01 in 10.0 mi Calm Calm - N/A   Clear
8:35 AM 73.4 °F - 73.4 °F 100% 30.01 in 10.0 mi Calm Calm - N/A   Clear
8:55 AM 77.0 °F - 75.2 °F 94% 30.01 in 10.0 mi Calm Calm - N/A   Clear
9:15 AM 78.8 °F - 77.0 °F 94% 30.01 in 10.0 mi Calm Calm - N/A   Scattered Clouds
9:35 AM 80.6 °F 87.1 °F 77.0 °F 89% 30.01 in 10.0 mi Calm Calm - N/A   Scattered Clouds
9:55 AM 80.6 °F 87.1 °F 77.0 °F 89% 30.01 in 10.0 mi South 3.5 mph - N/A   Scattered Clouds
10:15 AM 82.4 °F 90.9 °F 77.0 °F 84% 30.01 in 10.0 mi Calm Calm - N/A   Scattered Clouds
10:35 AM 84.2 °F 94.1 °F 77.0 °F 79% 30.01 in 10.0 mi SSW 4.6 mph - N/A   Scattered Clouds
10:55 AM 87.8 °F 99.7 °F 77.0 °F 70% 30.01 in 10.0 mi SSW 5.8 mph - N/A   Scattered Clouds
11:15 AM 87.8 °F 99.7 °F 77.0 °F 70% 30.01 in 10.0 mi SSW 5.8 mph - N/A   Mostly Cloudy
11:35 AM 87.8 °F 99.7 °F 77.0 °F 70% 30.01 in 10.0 mi SW 6.9 mph - N/A   Mostly Cloudy
11:55 AM 87.8 °F 97.6 °F 75.2 °F 66% 30.01 in 10.0 mi SSW 5.8 mph - N/A   Mostly Cloudy
12:15 PM 89.6 °F 98.2 °F 73.4 °F 59% 30.00 in 10.0 mi SSW 6.9 mph - N/A   Scattered Clouds
12:35 PM 89.6 °F 96.2 °F 71.6 °F 55% 30.00 in 10.0 mi SW 8.1 mph - N/A   Mostly Cloudy
12:55 PM 87.8 °F 93.8 °F 71.6 °F 58% 29.99 in 10.0 mi WSW 5.8 mph - N/A   Mostly Cloudy
1:15 PM 89.6 °F 98.2 °F 73.4 °F 59% 29.98 in 10.0 mi Calm Calm - N/A   Scattered Clouds
1:35 PM 91.4 °F 98.4 °F 71.6 °F 52% 29.97 in 10.0 mi South 6.9 mph - N/A   Mostly Cloudy
1:55 PM 89.6 °F 96.2 °F 71.6 °F 55% 29.96 in 10.0 mi SSE 4.6 mph - N/A Thunderstorm Mostly Cloudy
2:15 PM 82.4 °F 88.2 °F 73.4 °F 74% 29.97 in 5.0 mi NE 6.9 mph - N/A Thunderstorm Overcast
2:35 PM 80.6 °F 87.1 °F 77.0 °F 89% 29.97 in 5.0 mi ENE 12.7 mph 18.4 mph N/A Thunderstorm Thunderstorm
2:55 PM 80.6 °F 87.1 °F 77.0 °F 89% 29.96 in 10.0 mi North 9.2 mph 16.1 mph N/A Thunderstorm Thunderstorm
3:15 PM 78.8 °F - 73.4 °F 83% 29.98 in 2.0 mi East 5.8 mph 9.2 mph N/A Thunderstorm Thunderstorm
3:35 PM 75.2 °F - 71.6 °F 89% 29.98 in 1.0 mi NE 8.1 mph - N/A Thunderstorm Thunderstorm
3:55 PM 75.2 °F - 73.4 °F 94% 29.97 in 4.0 mi East 8.1 mph - N/A Thunderstorm Thunderstorm
4:15 PM 75.2 °F - 73.4 °F 94% 29.96 in 2.0 mi NE 13.8 mph - N/A Thunderstorm Thunderstorm
4:35 PM 75.2 °F - 73.4 °F 94% 29.96 in 10.0 mi ENE 11.5 mph - N/A Thunderstorm Scattered Clouds
4:55 PM 77.0 °F - 75.2 °F 94% 29.97 in 10.0 mi ENE 13.8 mph - N/A Thunderstorm Thunderstorm
5:15 PM 77.0 °F - 75.2 °F 94% 29.98 in 10.0 mi NW 13.8 mph 19.6 mph N/A Thunderstorm Thunderstorm
5:35 PM 73.4 °F - 71.6 °F 94% 30.05 in 0.8 mi West 6.9 mph - N/A Thunderstorm Thunderstorm
5:55 PM 73.4 °F - 71.6 °F 94% 30.03 in 5.0 mi North 3.5 mph - N/A Thunderstorm Thunderstorm
6:15 PM 73.4 °F - 71.6 °F 94% 30.03 in 7.0 mi ENE 5.8 mph - N/A Thunderstorm Thunderstorm
6:35 PM 73.4 °F - 71.6 °F 94% 29.99 in 7.0 mi NNE 9.2 mph - N/A Thunderstorm Overcast
6:55 PM 73.4 °F - 71.6 °F 94% 30.00 in 10.0 mi ENE 9.2 mph - N/A Thunderstorm Overcast
7:15 PM 73.4 °F - 71.6 °F 94% 30.02 in 10.0 mi ENE 4.6 mph - N/A Thunderstorm Overcast
7:35 PM 73.4 °F - 71.6 °F 94% 30.03 in 10.0 mi North 4.6 mph - N/A   Scattered Clouds
7:55 PM 71.6 °F - 71.6 °F 100% 30.03 in 10.0 mi Calm Calm - N/A Thunderstorm Clear
8:15 PM 71.6 °F - 71.6 °F 100% 30.03 in 10.0 mi Calm Calm - N/A   Clear
8:35 PM 71.6 °F - 71.6 °F 100% 30.03 in 10.0 mi Calm Calm - N/A   Clear
8:55 PM 71.6 °F - 71.6 °F 100% 30.03 in 10.0 mi Calm Calm - N/A   Clear
9:15 PM 71.6 °F - 71.6 °F 100% 30.04 in 10.0 mi Calm Calm - N/A   Clear
9:35 PM 73.4 °F - 71.6 °F 94% 30.04 in 10.0 mi Calm Calm - N/A   Clear
9:55 PM 73.4 °F - 71.6 °F 94% 30.05 in 10.0 mi Calm Calm - N/A   Clear
10:15 PM 71.6 °F - 69.8 °F 94% 30.06 in 10.0 mi Calm Calm - N/A   Scattered Clouds
10:35 PM 71.6 °F - 71.6 °F 100% 30.06 in 7.0 mi Calm Calm - N/A   Mostly Cloudy
10:55 PM 71.6 °F - 71.6 °F 100% 30.05 in 7.0 mi Calm Calm - N/A   Overcast
11:15 PM 71.6 °F - 71.6 °F 100% 30.06 in 10.0 mi Calm Calm - N/A   Overcast
11:35 PM 73.4 °F - 71.6 °F 94% 30.05 in 10.0 mi Calm Calm - N/A   Overcast
11:55 PM 73.4 °F - 71.6 °F 94% 30.05 in 10.0 mi Calm Calm - N/A   Scattered Clouds